Temperature
17 17 17 17 16 16 16 16 16 16 16 16 16 15 15 15 15 15 15 15 15 15 15 15 15 15 15 15 15 15 15 15 14 14 14 14 14 14 14 14 14 14 14
17 17 17 16 16 16 16 16 16 16 15 15 15 15 15 15 15 15 15 15 15 15 15 15 14 14 14 14 15 15 14 14 14 14 14 14 14 14 14 14 14 14 14
16 16 16 16 16 16 16 15 15 15 15 15 15 15 15 15 15 15 15 15 15 14 14 14 14 14 14 14 14 14 14 14 14 14 14 14 14 14 14 14 13 13 13
16 16 16 16 16 16 16 15 15 15 15 15 15 15 15 15 15 15 15 15 14 14 14 14 14 14 14 14 14 14 14 14 13 13 13 13 13 13 13 13 13 13 13
16 16 16 16 15 15 15 15 15 15 15 15 15 15 15 14 14 14 14 14 14 14 14 14 14 14 14 14 14 14 14 13 13 13 13 13 13 13 13 13 13 13 13
15 15 16 15 15 15 15 15 15 15 15 15 15 15 14 14 14 14 14 14 14 14 14 14 14 14 14 14 14 14 13 13 13 13 13 13 13 13 13 13 12 12 12
15 15 15 15 15 15 15 15 15 15 15 15 15 14 14 14 14 14 14 14 14 14 14 14 14 14 14 14 14 13 13 13 13 13 13 13 13 13 13 12 12 12 12
15 15 15 15 15 15 15 15 15 15 15 15 14 14 14 14 14 14 14 14 14 14 14 14 14 14 14 13 13 13 13 13 12 12 12 12 12 12 12 12 12 12 12
14 14 15 15 15 14 14 14 14 14 14 14 14 14 14 14 14 14 14 14 14 13 13 13 13 13 13 13 13 13 12 12 12 12 12 12 12 12 12 12 12 12 12
14 14 14 14 14 14 14 14 14 14 14 14 14 14 14 14 14 14 14 13 13 13 13 13 13 13 13 13 13 12 12 12 12 12 12 12 12 12 12 12 11 11 11
13 13 14 14 14 14 14 14 14 14 14 14 14 14 13 13 13 13 13 13 13 13 13 13 13 13 13 13 12 12 12 12 11 11 11 12 12 11 11 11 11 11 11
13 13 13 13 13 13 13 13 13 13 13 13 13 13 13 13 13 13 13 13 13 13 13 13 13 12 12 12 12 12 12 12 11 11 11 11 11 11 11 11 11 11 11
13 13 13 13 13 13 13 13 13 13 13 13 13 13 13 13 13 13 13 13 13 13 13 12 12 12 12 12 12 12 11 11 11 11 11 11 11 11 11 11 11 11 10
12 12 12 12 13 13 12 13 13 13 13 12 12 12 13 13 12 12 12 12 12 12 12 12 12 12 12 11 11 11 11 11 11 11 11 11 11 11 11 11 11 11 10
12 12 12 12 12 12 12 12 12 12 12 12 12 12 12 12 12 12 12 12 12 12 12 12 12 11 11 11 11 11 11 11 11 11 11 11 11 11 11 10 10 10 10
12 12 12 12 12 12 12 12 12 12 12 12 12 12 12 12 12 12 12 12 11 11 11 11 11 11 11 11 11 11 11 11 10 10 10 11 11 11 10 10 10 10 10
11 11 11 11 11 11 11 11 11 11 11 11 11 11 11 12 12 12 11 11 11 11 11 11 11 11 11 11 11 11 11 10 10 10 10 10 10 10 10 10 10 10 10
11 11 11 11 11 11 11 11 11 11 11 11 11 11 11 11 11 11 11 11 11 11 11 10 10 10 10 10 10 10 10 10 10 10 10 10 10 10 10 10 10 10 9
10 11 11 11 11 11 11 11 11 11 11 11 11 11 11 11 11 11 11 11 11 10 10 10 10 10 10 10 10 10 10 10 10 10 10 10 9 9 9 9 9 9 9
10 10 10 10 10 10 10 10 10 10 10 10 10 10 11 11 11 11 11 10 10 10 10 10 10 10 10 10 10 10 10 9 9 9 9 9 9 9 9 9 9 9 9
9 9 10 10 10 10 10 10 10 10 10 10 10 10 10 10 10 10 10 10 10 10 10 10 10 9 9 9 9 9 9 9 9 9 9 9 9 9 9 9 9 9 9
9 9 9 9 9 9 9 9 9 9 9 9 9 9 10 10 10 10 10 10 9 9 9 9 9 9 9 9 9 8 8 8 8 8 8 8 8 8 8 8 8 8 8
8 9 9 9 9 9 9 9 9 9 9 9 9 9 9 9 9 9 9 9 9 9 9 9 9 9 9 9 8 8 8 8 8 8 8 8 8 8 8 8 8 8 8
8 8 8 8 8 8 8 8 8 9 8 8 8 9 9 9 9 9 9 9 9 9 9 9 9 9 8 8 8 8 8 8 7 7 7 7 7 7 7 7 7 7 7
7 7 8 8 8 8 8 8 8 8 8 8 8 8 8 8 8 8 8 8 8 8 8 8 8 8 8 8 8 8 7 7 7 7 6 6 6 6 6 7 7 6 7
7 7 7 7 7 7 7 7 7 7 7 7 7 7 8 8 8 8 8 8 8 8 8 8 8 7 8 8 7 7 7 7 7 7 6 6 6 6 6 6 6 6 6
Wind_Speed
7 10 13 11 11 11 11 11 11 11 10 10 11 11 10 11 11 10 10 10 10 10 11 12 12 12 13 14 14 14 15 15 15 15 15 16 16 16 16 16 15 14 16
8 11 13 11 12 11 11 11 10 10 10 10 10 10 10 10 10 9 9 10 10 10 11 12 12 12 12 13 14 13 13 13 13 13 14 14 15 15 15 16 15 14 15
10 11 12 11 12 11 10 10 10 10 10 10 10 10 10 9 9 9 9 9 9 10 11 12 12 12 12 12 12 12 11 10 9 9 11 12 13 14 15 15 15 14 14
10 11 10 11 11 11 10 10 10 9 9 10 10 9 9 9 9 9 9 9 9 10 11 11 11 11 11 11 11 10 9 7 7 8 10 11 12 13 14 14 14 14 14
9 11 11 11 10 10 10 10 10 9 9 9 9 9 9 9 9 9 8 9 9 10 10 10 10 10 10 10 9 8 7 6 7 9 11 12 12 13 13 13 13 13 13
8 10 11 11 10 9 9 9 9 9 9 9 9 9 8 8 9 9 8 8 9 9 10 10 9 10 10 9 8 7 6 6 7 10 11 11 11 12 12 12 12 12 12
6 9 11 11 10 9 9 9 9 9 9 9 9 9 9 9 9 9 9 9 9 9 9 9 9 9 9 8 7 6 6 7 8 10 10 10 11 11 11 11 11 11 11
6 7 9 10 10 9 9 9 9 9 9 9 9 9 9 9 9 9 9 8 8 9 9 8 8 8 8 7 6 5 6 7 7 9 10 10 10 11 11 10 9 9 9
5 6 6 8 8 9 9 9 9 9 8 9 8 8 9 9 9 9 9 9 8 8 8 8 8 8 7 6 5 4 5 6 6 7 8 8 9 9 9 9 8 8 8
4 5 4 5 5 5 6 8 8 8 8 8 8 8 9 9 9 9 9 8 8 8 8 7 7 7 7 5 4 3 3 4 5 7 8 7 8 8 8 8 8 8 7
3 3 3 3 4 3 4 6 6 7 7 8 8 9 9 8 8 8 9 9 8 8 7 7 7 6 5 4 3 1 1 2 5 7 7 6 6 6 6 7 7 6 6
2 2 3 3 3 3 3 4 4 4 5 6 7 8 7 6 7 8 9 9 8 7 6 5 5 5 4 3 2 0 1 2 4 6 6 6 6 6 6 5 6 6 6
3 2 2 2 2 2 2 2 2 3 3 4 6 7 7 6 7 7 7 7 7 6 5 4 3 3 2 3 2 1 2 3 5 6 6 7 6 5 4 4 5 5 5
2 2 1 2 2 2 2 2 2 2 2 2 4 6 6 4 4 4 4 5 5 5 4 4 2 2 3 3 2 2 2 3 5 6 6 6 5 4 3 3 3 3 3
2 3 2 1 2 1 2 2 2 2 2 2 2 4 6 4 4 4 3 3 4 4 4 3 2 3 3 3 2 2 2 3 4 5 5 5 5 4 3 2 2 3 2
2 2 2 2 2 2 2 1 1 1 3 3 3 3 5 5 4 4 3 3 3 4 4 3 2 3 3 3 3 3 3 3 3 5 5 5 4 3 3 2 2 2 2
2 2 2 2 1 2 2 2 1 1 2 2 2 3 4 4 5 4 3 3 3 4 4 3 3 3 2 2 2 2 3 3 4 4 4 4 4 3 3 2 2 1 1
2 2 2 2 2 2 2 1 1 2 2 2 2 3 4 5 5 4 4 3 3 3 3 3 2 2 2 2 1 1 2 2 3 3 3 3 3 3 3 2 1 1 1
3 2 2 2 2 2 2 2 2 2 2 2 2 2 3 4 5 4 4 4 5 3 3 3 2 2 2 1 1 1 1 1 1 2 2 3 3 2 2 2 1 1 1
2 3 2 2 2 2 2 2 2 2 2 2 2 2 3 3 4 4 3 4 4 4 3 2 3 2 2 2 1 1 0 1 1 1 1 2 2 2 1 1 1 1 1
2 2 2 2 1 1 2 2 2 2 2 2 2 3 3 3 3 3 3 4 4 4 4 4 3 3 2 2 1 0 0 1 1 1 1 1 2 2 1 1 2 2 1
2 2 1 1 2 1 1 2 2 2 2 2 2 2 3 3 3 3 4 3 3 4 4 4 4 2 1 2 2 1 0 1 1 1 1 1 1 1 1 1 1 1 1
1 1 1 1 1 2 2 2 2 2 2 1 2 2 2 3 3 3 4 4 3 3 4 4 4 4 3 2 1 2 2 2 1 1 1 1 1 1 0 1 1 1 1
1 1 1 1 1 1 2 2 3 3 2 2 2 2 2 3 3 2 3 4 3 3 4 4 3 3 4 3 1 0 1 1 2 1 1 1 1 1 1 0 1 1 1
1 2 1 1 1 1 1 2 3 3 2 2 3 3 3 3 3 3 3 3 3 3 3 3 3 3 3 3 2 1 0 1 0 2 2 2 1 1 1 1 1 0 0
1 2 2 1 1 1 2 2 2 3 4 4 3 4 3 2 2 3 3 3 2 2 3 4 4 4 3 3 2 2 1 1 1 1 2 2 2 2 2 1 1 1 1
Wind_Direction
116 124 136 133 130 129 128 126 122 118 115 112 107 101 98 94 91 92 92 88 87 88 90 86 82 77 75 76 77 76 76 77 76 76 75 73 73 71 69 68 68 68 70
121 125 136 134 133 131 129 129 125 121 118 117 112 107 103 100 98 95 95 92 91 88 87 87 84 81 80 79 80 78 78 81 81 81 79 75 73 71 71 69 70 70 69
120 123 133 136 135 133 130 130 129 127 124 121 116 113 108 105 105 101 96 92 92 89 88 87 85 82 82 81 80 79 79 80 78 76 80 78 75 73 73 72 71 70 69
117 119 127 135 137 135 133 132 132 132 130 127 122 119 114 109 110 106 100 96 94 92 91 87 87 84 83 83 81 79 75 69 61 66 74 75 76 76 74 73 70 67 67
113 116 125 132 136 138 137 136 136 137 135 130 128 124 119 114 111 108 104 101 97 95 95 91 89 89 87 84 83 80 69 54 44 66 72 74 77 77 74 72 71 70 67
118 117 125 135 136 139 141 140 139 142 141 135 131 127 126 121 116 111 105 102 103 101 98 95 93 93 88 85 84 77 58 35 50 72 72 75 80 81 77 72 70 70 69
109 112 128 137 139 138 142 147 144 144 143 141 136 133 130 125 119 112 108 104 104 106 103 100 96 93 91 88 83 71 44 30 67 77 73 74 80 82 79 75 70 69 68
108 106 128 140 141 144 140 142 147 148 145 145 143 138 137 130 123 116 112 108 105 107 106 105 102 96 94 91 82 65 38 33 72 83 79 77 82 84 81 75 71 69 67
94 102 116 140 145 148 145 140 146 150 146 145 142 140 139 133 126 119 114 110 107 111 110 107 104 102 97 92 81 64 39 28 60 81 83 78 85 84 79 74 70 69 66
94 101 105 121 131 142 144 146 145 148 148 145 140 135 135 132 128 125 120 115 110 110 112 112 111 109 103 97 80 63 40 22 67 75 82 81 86 85 81 76 72 72 69
99 111 108 108 105 118 140 146 147 145 146 147 143 140 139 138 134 131 128 123 117 112 113 112 112 116 111 104 90 42 3 42 79 81 86 89 92 89 83 80 78 74 70
135 123 120 111 112 110 131 136 143 142 143 150 147 148 152 148 137 132 130 129 125 119 116 118 128 129 123 126 125 187 334 60 88 90 97 96 94 92 86 83 81 74 69
143 125 127 121 111 114 108 129 131 140 147 155 152 157 154 140 132 131 132 133 131 127 122 124 132 149 132 114 112 104 43 50 73 90 105 100 96 94 89 85 84 81 73
136 127 118 111 112 116 112 129 137 133 132 139 161 160 150 137 133 134 138 148 148 146 136 132 134 121 100 91 90 73 62 60 77 93 101 99 98 95 94 90 82 79 81
142 142 137 132 130 117 130 140 147 147 138 141 148 163 156 145 150 150 149 146 143 141 137 133 124 106 94 90 86 77 61 65 75 93 106 98 98 96 91 91 82 75 83
160 153 146 151 142 129 152 159 152 153 141 139 139 149 159 155 152 152 147 144 142 143 140 135 121 108 98 86 73 64 58 57 63 79 107 108 99 98 100 97 90 80 84
184 156 159 157 138 152 159 159 137 124 120 123 136 146 150 149 146 147 147 142 136 138 135 119 109 104 105 92 84 67 64 52 54 59 78 111 116 112 108 100 89 70 61
168 167 176 171 139 142 142 153 138 116 112 107 123 138 147 145 146 145 148 148 139 135 126 123 129 125 117 117 102 79 75 74 62 68 75 82 103 117 124 107 86 44 18
165 165 174 167 166 149 145 151 142 125 123 116 122 124 134 143 153 149 152 153 147 140 140 148 139 137 136 125 118 103 94 93 81 82 87 94 96 105 123 119 123 69 18
143 148 153 151 171 153 137 151 146 127 128 115 111 117 135 146 151 144 146 150 147 144 148 144 142 136 140 145 123 92 150 157 122 97 105 113 108 108 109 111 109 98 355
114 116 139 155 165 157 151 167 168 168 161 150 130 127 137 142 151 149 149 151 151 155 161 151 145 142 149 145 110 70 311 186 158 171 138 112 114 119 110 104 99 100 71
126 125 130 144 183 177 173 165 162 160 162 155 135 140 144 153 157 159 155 161 160 159 157 156 153 154 176 168 142 135 99 319 299 234 178 159 158 128 125 142 107 90 89
123 137 156 177 199 186 162 137 127 123 116 126 145 153 136 130 136 160 164 159 168 163 167 168 169 165 176 202 161 152 161 208 260 263 225 217 226 216 164 134 135 133 115
158 122 120 138 196 176 160 152 151 159 165 176 160 157 150 138 138 136 143 156 166 161 168 178 176 170 161 183 216 217 178 160 160 250 269 228 227 229 225 219 143 132 107
130 137 142 149 185 148 160 158 154 159 162 149 147 152 155 145 145 142 135 130 162 167 173 179 174 171 171 177 186 194 249 318 188 190 239 242 259 260 241 213 167 177 141
97 127 150 149 182 174 180 184 179 169 162 152 156 160 158 153 152 138 132 136 136 156 178 179 175 175 176 173 178 176 174 179 218 201 234 242 240 249 253 220 182 178 176
Height
1508 1509 1510 1512 1514 1515 1517 1518 1520 1521 1522 1523 1524 1525 1526 1527 1527 1528 1529 1530 1531 1531 1532 1532 1533 1533 1533 1533 1533 1534 1534 1534 1534 1535 1535 1534 1534 1534 1534 1534 1534 1534 1534
1507 1509 1510 1512 1514 1515 1517 1519 1520 1521 1522 1524 1525 1526 1526 1527 1528 1529 1530 1531 1532 1532 1533 1533 1534 1534 1534 1534 1535 1535 1535 1535 1536 1536 1536 1536 1536 1535 1535 1535 1535 1535 1536
1507 1508 1510 1512 1514 1516 1517 1519 1520 1522 1523 1524 1525 1526 1527 1528 1529 1530 1530 1531 1532 1533 1534 1534 1534 1535 1535 1535 1536 1536 1537 1537 1537 1537 1537 1537 1537 1537 1537 1537 1537 1537 1537
1507 1508 1510 1512 1514 1515 1517 1519 1520 1522 1523 1524 1525 1526 1527 1528 1529 1530 1531 1532 1533 1533 1534 1535 1535 1535 1536 1536 1536 1537 1538 1538 1539 1539 1538 1538 1538 1538 1538 1538 1538 1538 1538
1507 1508 1510 1512 1513 1515 1517 1519 1520 1522 1523 1524 1525 1526 1527 1529 1530 1530 1531 1532 1533 1534 1534 1535 1536 1536 1537 1537 1537 1538 1539 1539 1539 1539 1539 1540 1539 1539 1539 1539 1539 1539 1539
1507 1508 1510 1512 1513 1515 1517 1518 1520 1521 1523 1524 1525 1526 1527 1529 1530 1531 1531 1532 1533 1534 1534 1535 1536 1536 1537 1537 1538 1539 1539 1540 1540 1540 1540 1541 1540 1540 1540 1540 1540 1540 1540
1507 1508 1509 1511 1513 1514 1516 1518 1519 1521 1522 1524 1525 1526 1527 1528 1529 1531 1532 1532 1533 1534 1534 1535 1536 1537 1537 1538 1538 1539 1540 1540 1540 1541 1541 1541 1541 1541 1541 1541 1541 1541 1541
1507 1507 1509 1511 1512 1514 1515 1517 1519 1520 1522 1523 1524 1525 1527 1528 1529 1530 1531 1532 1533 1534 1534 1535 1536 1537 1537 1538 1539 1539 1540 1541 1541 1541 1541 1542 1542 1542 1542 1541 1541 1541 1541
1506 1507 1508 1510 1511 1513 1515 1516 1518 1519 1521 1522 1523 1525 1526 1527 1528 1530 1531 1532 1533 1534 1534 1535 1536 1537 1537 1538 1539 1540 1540 1541 1541 1541 1541 1542 1542 1542 1542 1542 1542 1542 1542
1505 1506 1507 1508 1510 1512 1513 1515 1517 1518 1520 1521 1523 1524 1525 1527 1528 1529 1530 1531 1532 1533 1534 1535 1536 1536 1537 1538 1539 1540 1540 1541 1541 1541 1541 1542 1542 1542 1542 1542 1542 1542 1542
1504 1505 1506 1507 1508 1510 1512 1513 1515 1517 1518 1520 1521 1523 1524 1526 1527 1528 1529 1530 1532 1533 1534 1534 1535 1536 1537 1538 1538 1539 1540 1540 1541 1541 1541 1541 1542 1542 1542 1542 1542 1542 1542
1502 1503 1504 1505 1507 1508 1510 1511 1513 1514 1516 1518 1519 1521 1523 1524 1526 1527 1528 1529 1530 1532 1533 1533 1534 1535 1536 1537 1538 1538 1539 1540 1540 1540 1540 1541 1541 1541 1541 1541 1541 1541 1541
1501 1502 1503 1504 1505 1506 1507 1509 1510 1512 1514 1516 1518 1519 1521 1523 1524 1525 1526 1528 1529 1530 1531 1532 1533 1534 1535 1536 1537 1537 1538 1539 1539 1539 1539 1540 1540 1540 1540 1540 1540 1540 1540
1499 1500 1501 1502 1503 1504 1505 1506 1508 1510 1512 1514 1515 1517 1519 1520 1522 1523 1524 1526 1527 1528 1530 1531 1532 1532 1534 1535 1536 1536 1537 1538 1539 1538 1539 1539 1539 1539 1539 1539 1539 1539 1539
1497 1498 1499 1500 1501 1502 1503 1504 1505 1507 1509 1511 1513 1515 1517 1518 1519 1521 1523 1524 1525 1527 1528 1529 1530 1531 1532 1533 1534 1535 1536 1537 1537 1537 1537 1538 1538 1538 1538 1538 1538 1538 1538
1494 1495 1497 1497 1498 1499 1500 1502 1503 1505 1506 1509 1510 1512 1514 1516 1517 1519 1520 1522 1524 1525 1527 1528 1529 1530 1531 1532 1533 1534 1535 1535 1536 1536 1536 1536 1536 1536 1537 1537 1537 1537 1537
1492 1493 1494 1495 1496 1497 1498 1499 1500 1502 1504 1506 1508 1510 1512 1513 1515 1517 1518 1520 1522 1523 1525 1526 1527 1529 1530 1531 1532 1532 1533 1534 1534 1534 1535 1535 1535 1535 1535 1535 1535 1535 1535
1490 1490 1491 1492 1493 1494 1495 1496 1497 1499 1501 1503 1505 1507 1509 1510 1512 1514 1516 1518 1520 1521 1522 1524 1525 1526 1528 1529 1530 1531 1531 1532 1532 1533 1533 1533 1533 1533 1533 1533 1533 1533 1533
1487 1487 1488 1489 1490 1491 1492 1493 1495 1496 1498 1500 1502 1504 1506 1508 1510 1512 1513 1515 1517 1519 1520 1521 1523 1524 1525 1526 1527 1528 1529 1530 1530 1531 1531 1531 1531 1531 1531 1531 1531 1531 1531
1483 1484 1485 1486 1487 1489 1490 1491 1492 1493 1495 1497 1499 1501 1503 1505 1507 1509 1511 1513 1514 1516 1517 1519 1520 1522 1523 1524 1525 1526 1527 1528 1528 1529 1529 1529 1529 1529 1529 1529 1529 1529 1529
1481 1481 1482 1483 1484 1485 1487 1487 1488 1490 1492 1494 1496 1498 1500 1502 1504 1506 1508 1510 1511 1513 1514 1516 1518 1519 1521 1522 1523 1524 1525 1525 1526 1526 1527 1527 1527 1527 1527 1527 1527 1527 1527
1478 1478 1479 1480 1481 1482 1484 1485 1486 1488 1489 1491 1494 1495 1497 1499 1501 1503 1505 1507 1508 1510 1511 1513 1515 1516 1518 1520 1520 1521 1522 1523 1523 1524 1524 1525 1525 1525 1525 1525 1525 1525 1524
1475 1476 1476 1477 1479 1480 1481 1482 1483 1485 1486 1489 1490 1492 1494 1496 1498 1500 1502 1504 1505 1507 1508 1510 1511 1513 1514 1517 1518 1520 1519 1519 1520 1521 1521 1522 1522 1522 1522 1522 1522 1522 1522
1472 1473 1474 1475 1476 1477 1479 1479 1480 1482 1484 1485 1487 1489 1491 1493 1495 1497 1499 1501 1502 1504 1505 1507 1509 1510 1512 1513 1515 1516 1518 1517 1518 1517 1518 1519 1519 1519 1519 1519 1519 1519 1519
1470 1471 1471 1473 1474 1475 1476 1477 1479 1480 1482 1484 1485 1487 1488 1490 1492 1494 1496 1498 1499 1501 1503 1504 1505 1507 1508 1510 1511 1512 1514 1515 1515 1515 1515 1515 1516 1516 1516 1517 1516 1516 1516
1467 1468 1469 1470 1472 1473 1474 1475 1477 1478 1480 1481 1482 1483 1485 1487 1489 1491 1493 1494 1496 1498 1499 1501 1502 1504 1505 1507 1508 1509 1510 1511 1512 1512 1512 1512 1512 1513 1513 1514 1513 1513 1513